Weather in Syrkovo

Russia / Novgorod Oblast     58°34′46″N   31°14′01″E
temp.,
°C
wind,
m/s
gust,
m/s
humid.,
%
clouds,
%
prec.,
mm/h
press.,
hPa
HPBL,
m
9 march, tue
tue900:00−12nnw26940 0.0 1016208
03:00−13nnw259515 0.0 1018234
06:00−14n259561 0.0 1019259
09:00−14nne248846 0.0 1020291
12:00−11n236338 0.0 1021597
15:00−9nne125319 0.0 1022725
18:00−10ne2367100 0.0 1022406
21:00−13ene3680100 0.0 1024355
10 march, wed
wed1000:00−15ene4783100 0.0 1025326
03:00−17ene478885 0.0 1026289
06:00−18e47870 0.0 1028314
09:00−18e47790 0.0 1030278
12:00−14e476112 0.0 1030469
15:00−10ese475421 0.0 1030740
18:00−11ese366635 0.0 1030498
21:00−13ese387957 0.0 1031297
11 march, thu
thu1100:00−14se377966 0.0 1031245
03:00−15se487933 0.0 1031291
06:00−16se49780 0.0 1030304
09:00−14sse597123 0.0 1029393
12:00−11sse598696 0.2 1027488
15:00−7sse597281 0.3 1025498
18:00−7s410800 0.0 1023463
21:00−8s513880 0.0 1023454
12 march, fri
fri1200:00−9s5139272 0.0 1021436
03:00−10s6139185 0.0 1019494
06:00−10sse6158785 0.0 1017550
09:00−8sse7167851 0.0 1015664
12:00−5s8156675 0.0 1013826
15:00−2s8156487 0.0 10111045
18:00−3s81677100 0.0 10091248
21:00−3s81593100 0.9 10081130
13 march, sat
sat1300:00−4s71494100 1.3 1007934
03:00−4s71394100 2.2 1006713
06:00−3s61194100 0.9 1005492
09:00−2s51294100 1.1 1006533
12:00+1ssw51196100 0.3 1006623
15:00+2ssw61197100 0.3 1005777
18:00+2ssw51296100 1.4 1004737
21:00+2ssw61493100 3.0 1004801